Estación de Las Viñas
Ultimos registro cada 15 minutos 83
| N° | Estación | Fecha / Hora | Temperatura | Humedad | Lluvia | Velocidad | Dirección | Radiación | Presion |
| 83 | Las Viñas | 04-09-2026 20:45 | 8,2 | 80 | 0 | 0,4 | 175 | 0 | 1027 |
| 82 | Las Viñas | 04-09-2026 20:30 | 8,3 | 80 | 0 | 0,9 | 180 | 0 | 1026,9 |
| 81 | Las Viñas | 04-09-2026 20:15 | 8,4 | 79 | 0 | 1,3 | 114 | 0 | 1026,8 |
| 80 | Las Viñas | 04-09-2026 20:00 | 8,6 | 78 | 0 | 0,4 | 206 | 0 | 1027 |
| 79 | Las Viñas | 04-09-2026 19:45 | 8,7 | 77 | 0 | 0,9 | 196 | 0 | 1027 |
| 78 | Las Viñas | 04-09-2026 19:30 | 8,8 | 77 | 0 | 0,9 | 147 | 0 | 1027 |
| 77 | Las Viñas | 04-09-2026 19:15 | 9 | 76 | 0 | 0,4 | 130 | 0 | 1026,7 |
| 76 | Las Viñas | 04-09-2026 19:00 | 9,3 | 75 | 0 | 0,4 | 126 | 0 | 1026,7 |
| 75 | Las Viñas | 04-09-2026 18:45 | 9,8 | 73 | 0 | 0,4 | 144 | 0 | 1026,7 |
| 74 | Las Viñas | 04-09-2026 18:30 | 10,2 | 72 | 0 | 0,9 | 159 | 0 | 1026,5 |
| 73 | Las Viñas | 04-09-2026 18:15 | 10,7 | 71 | 0 | 0,9 | 185 | 11 | 1026,3 |
| 72 | Las Viñas | 04-09-2026 18:00 | 11,2 | 69 | 0 | 0,4 | 185 | 14 | 1026,4 |
| 71 | Las Viñas | 04-09-2026 17:45 | 11,8 | 67 | 0 | 0,4 | 185 | 18 | 1026,2 |
| 70 | Las Viñas | 04-09-2026 17:30 | 12,9 | 63 | 0 | 0,4 | 237 | 60 | 1026 |
| 69 | Las Viñas | 04-09-2026 17:15 | 13,7 | 62 | 0 | 0,4 | 253 | 62 | 1026,1 |
| 68 | Las Viñas | 04-09-2026 17:00 | 14,2 | 60 | 0 | 0,4 | 227 | 183 | 1026,2 |
| 67 | Las Viñas | 04-09-2026 16:45 | 14,3 | 59 | 0 | 1,3 | 137 | 274 | 1026,2 |
| 66 | Las Viñas | 04-09-2026 16:30 | 14,7 | 60 | 0 | 0,4 | 202 | 352 | 1026,1 |
| 65 | Las Viñas | 04-09-2026 16:15 | 14,6 | 59 | 0 | 0,9 | 163 | 301 | 1026,1 |
| 64 | Las Viñas | 04-09-2026 16:00 | 14,7 | 60 | 0 | 0,9 | 131 | 295 | 1026 |
| 63 | Las Viñas | 04-09-2026 15:45 | 14,8 | 61 | 0 | 0,4 | 197 | 457 | 1026,1 |
| 62 | Las Viñas | 04-09-2026 15:30 | 14,7 | 62 | 0 | 0,4 | 185 | 531 | 1026,1 |
| 61 | Las Viñas | 04-09-2026 15:15 | 14,8 | 61 | 0 | 0,4 | 237 | 543 | 1026 |
| 60 | Las Viñas | 04-09-2026 15:00 | 14,6 | 62 | 0 | 1,3 | 85 | 584 | 1026 |
| 59 | Las Viñas | 04-09-2026 14:45 | 14,1 | 62 | 0 | 1,3 | 101 | 649 | 1026,2 |
| 58 | Las Viñas | 04-09-2026 14:30 | 13,9 | 60 | 0 | 1,3 | 175 | 345 | 1026,2 |
| 57 | Las Viñas | 04-09-2026 14:15 | 13,9 | 58 | 0 | 1,3 | 163 | 700 | 1026,1 |
| 56 | Las Viñas | 04-09-2026 13:45 | 13,6 | 65 | 0 | 1,3 | 249 | 721 | 1026,4 |
| 55 | Las Viñas | 04-09-2026 13:30 | 13,3 | 61 | 0 | 1,8 | 221 | 742 | 1026,7 |
| 54 | Las Viñas | 04-09-2026 13:15 | 13,2 | 62 | 0 | 2,7 | 240 | 752 | 1026,8 |
| 53 | Las Viñas | 04-09-2026 13:00 | 13,1 | 62 | 0 | 1,8 | 156 | 476 | 1027,1 |
| 52 | Las Viñas | 04-09-2026 12:45 | 12,8 | 62 | 0 | 1,3 | 189 | 765 | 1027,2 |
| 51 | Las Viñas | 04-09-2026 12:30 | 12,7 | 64 | 0 | 0,9 | 194 | 694 | 1027,3 |
| 50 | Las Viñas | 04-09-2026 12:15 | 12,7 | 64 | 0 | 0,9 | 155 | 761 | 1027,3 |
| 49 | Las Viñas | 04-09-2026 12:00 | 12,3 | 66 | 0 | 0,4 | 163 | 749 | 1027,7 |
| 48 | Las Viñas | 04-09-2026 11:45 | 11,8 | 66 | 0 | 0,4 | 180 | 737 | 1027,9 |
| 47 | Las Viñas | 04-09-2026 11:30 | 11,4 | 66 | 0 | 1,8 | 124 | 724 | 1028,1 |
| 46 | Las Viñas | 04-09-2026 11:15 | 11,2 | 67 | 0 | 0,4 | 224 | 638 | 1028,1 |
| 45 | Las Viñas | 04-09-2026 11:00 | 10,8 | 69 | 0 | 1,3 | 130 | 664 | 1027,9 |
| 44 | Las Viñas | 04-09-2026 10:45 | 10,4 | 72 | 0 | 1,8 | 300 | 642 | 1028,1 |
| 43 | Las Viñas | 04-09-2026 10:30 | 10,1 | 78 | 0 | 1,8 | 169 | 610 | 1028 |
| 42 | Las Viñas | 04-09-2026 10:15 | 9,3 | 80 | 0 | 0,9 | 175 | 575 | 1027,8 |
| 41 | Las Viñas | 04-09-2026 10:00 | 8,7 | 81 | 0 | 1,3 | 149 | 533 | 1028 |
| 40 | Las Viñas | 04-09-2026 09:45 | 8,1 | 83 | 0 | 0,4 | 98 | 258 | 1027,9 |
| 39 | Las Viñas | 04-09-2026 09:30 | 7,4 | 85 | 0 | 1,3 | 146 | 438 | 1028 |
| 38 | Las Viñas | 04-09-2026 09:15 | 6,7 | 86 | 0 | 1,3 | 185 | 315 | 1028,2 |
| 37 | Las Viñas | 04-09-2026 09:00 | 6,2 | 87 | 0 | 0,9 | 262 | 352 | 1028 |
| 36 | Las Viñas | 04-09-2026 08:45 | 5,6 | 86 | 0 | 1,8 | 163 | 30 | 1028,1 |
| 35 | Las Viñas | 04-09-2026 08:30 | 4,9 | 85 | 0 | 0,4 | 214 | 116 | 1028,3 |
| 34 | Las Viñas | 04-09-2026 08:15 | 4,3 | 83 | 0 | 0,4 | 185 | 86 | 1028,2 |
| 33 | Las Viñas | 04-09-2026 08:00 | 3,8 | 83 | 0 | 0,4 | 185 | 88 | 1028,2 |
| 32 | Las Viñas | 04-09-2026 07:45 | 3,3 | 84 | 0 | 0 | 237 | 28 | 1028 |
| 31 | Las Viñas | 04-09-2026 07:30 | 2,8 | 85 | 0 | 0 | 231 | 18 | 1027,9 |
| 30 | Las Viñas | 04-09-2026 07:15 | 2,8 | 86 | 0 | 0 | 185 | 11 | 1027,8 |
| 29 | Las Viñas | 04-09-2026 07:00 | 2,9 | 86 | 0 | 0 | 185 | 0 | 1027,9 |
| 28 | Las Viñas | 04-09-2026 06:45 | 3,1 | 86 | 0 | 0 | 193 | 0 | 1027,8 |
| 27 | Las Viñas | 04-09-2026 06:30 | 3,1 | 87 | 0 | 0 | 158 | 0 | 1027,8 |
| 26 | Las Viñas | 04-09-2026 06:15 | 3,2 | 87 | 0 | 0 | 120 | 0 | 1027,9 |
| 25 | Las Viñas | 04-09-2026 06:00 | 3,4 | 87 | 0 | 0 | 145 | 0 | 1027,9 |
| 24 | Las Viñas | 04-09-2026 05:45 | 3,6 | 87 | 0 | 0,4 | 157 | 0 | 1027,7 |
| 23 | Las Viñas | 04-09-2026 05:30 | 3,6 | 87 | 0 | 0,9 | 114 | 0 | 1027,6 |
| 22 | Las Viñas | 04-09-2026 05:15 | 3,7 | 87 | 0 | 0 | 164 | 0 | 1027,6 |
| 21 | Las Viñas | 04-09-2026 05:00 | 3,7 | 87 | 0 | 2,2 | 134 | 0 | 1027,7 |
| 20 | Las Viñas | 04-09-2026 04:45 | 3,8 | 87 | 0 | 0 | 152 | 0 | 1027,5 |
| 19 | Las Viñas | 04-09-2026 04:30 | 3,8 | 87 | 0 | 0,9 | 144 | 0 | 1027,6 |
| 18 | Las Viñas | 04-09-2026 04:15 | 3,7 | 87 | 0 | 0,9 | 148 | 0 | 1027,4 |
| 17 | Las Viñas | 04-09-2026 04:00 | 3,7 | 87 | 0 | 0 | 145 | 0 | 1027,4 |
| 16 | Las Viñas | 04-09-2026 03:45 | 3,8 | 88 | 0 | 0 | 138 | 0 | 1027,3 |
| 15 | Las Viñas | 04-09-2026 03:30 | 3,9 | 88 | 0 | 0 | 150 | 0 | 1027,3 |
| 14 | Las Viñas | 04-09-2026 03:15 | 4,1 | 88 | 0 | 0 | 147 | 0 | 1027,4 |
| 13 | Las Viñas | 04-09-2026 03:00 | 4,1 | 88 | 0 | 0 | 151 | 0 | 1027,4 |
| 12 | Las Viñas | 04-09-2026 02:45 | 4,1 | 88 | 0 | 0,9 | 148 | 0 | 1027,5 |
| 11 | Las Viñas | 04-09-2026 02:30 | 4,1 | 88 | 0 | 0 | 185 | 0 | 1027,6 |
| 10 | Las Viñas | 04-09-2026 02:15 | 4,1 | 88 | 0 | 0,4 | 185 | 0 | 1027,7 |
| 9 | Las Viñas | 04-09-2026 02:00 | 4,3 | 89 | 0 | 0 | 166 | 0 | 1027,9 |
| 8 | Las Viñas | 04-09-2026 01:45 | 4,4 | 88 | 0 | 0,4 | 175 | 0 | 1028 |
| 7 | Las Viñas | 04-09-2026 01:30 | 4,6 | 88 | 0 | 0 | 221 | 0 | 1027,8 |
| 6 | Las Viñas | 04-09-2026 01:15 | 4,8 | 88 | 0 | 0,9 | 185 | 0 | 1027,9 |
| 5 | Las Viñas | 04-09-2026 01:00 | 4,9 | 88 | 0 | 0 | 151 | 0 | 1027,9 |
| 4 | Las Viñas | 04-09-2026 00:45 | 5,1 | 88 | 0 | 0,4 | 202 | 0 | 1028,1 |
| 3 | Las Viñas | 04-09-2026 00:30 | 5,2 | 88 | 0 | 0,4 | 135 | 0 | 1028,2 |
| 2 | Las Viñas | 04-09-2026 00:15 | 5,3 | 88 | 0 | 0,4 | 151 | 0 | 1028,1 |
| 1 | Las Viñas | 04-09-2026 00:00 | 5,4 | 87 | 0 | 0,4 | 158 | 0 | 1028,2 |